{"data":{"norad_id":52635,"epoch":"2026-09-20T01:52:04.007424Z","epoch_age_seconds":102905,"freshness":"FRESH","line1":"1 52635U 22052AP  26263.07782416 -.00001101  00000+0 -23718-4 0  9995","line2":"2 52635  53.1594  93.0297 0001316  79.1762 280.9388 15.31712643240662","mean_motion":15.31712643,"eccentricity":0.0001316,"inclination_deg":53.1594,"raan_deg":93.0297,"arg_perigee_deg":79.1762,"mean_anomaly_deg":280.9388,"bstar":-2.3718e-5,"rev_number":24066,"period_min":94.012411961269,"perigee_km":469.80100010692,"apogee_km":471.60361461262,"semimajor_km":6848.8393073598,"source":"CELESTRAK","updated_at":"2026-09-20T09:00:40.096718Z"}}